Regional Weather Roundup
Issued by NWS Northern Indiana

Home | Current Version | Previous Version | Graphics & Text | Print | Product List | Glossary On
Versions: 1 2 3 4 5 6 7 8 9 10 11 12 13 14 15 16 17 18 19 20 21 22 23 24 25 26 27 28 29 30 31 32 33 34 35 36 37 38 39 40 41 42 43 44 45 46 47 48 49 50
345
ASUS43 KIWX 120710
RWRIWX

KIWX WEATHER ROUNDUP
NATIONAL WEATHER SERVICE NORTHERN INDIANA
200 AM EST TUE DEC 12 2017

NOTE: "FAIR" INDICATES FEW OR NO CLOUDS BELOW 12,000 FEET WITH NO
SIGNIFICANT WEATHER AND/OR OBSTRUCTIONS TO VISIBILITY.

* THESE STATIONS ARE NOT UNDER NWS QUALITY CONTROL. THEY ALSO MAY NOT
  REPORT WEATHER SUCH AS PRECIPITATION OR FOG.

INZ001>027-120800-
NORTHERN INDIANA

CITY           SKY/WX    TMP DP  RH WIND       PRES   REMARKS
GARY*          CLOUDY    33  22  63 NW16G25   29.91R WCI  22
VALPARAISO     CLOUDY    33  23  66 NW16G25   29.87R WCI  23
MICHIGAN CITY* CLOUDY    32  25  74 N22G37    29.86R WCI  19
LAPORTE*       CLOUDY    32  24  71 NW18G29   29.85R WCI  20
KNOX*          CLOUDY    32  28  86 NW21      29.84R WCI  20
SOUTH BEND     MIX PCPN  31  25  78 NW20G36   29.81R WCI  19
GOSHEN         CLOUDY    33  27  78 NW22G29   29.78R WCI  21
MONTICELLO*    CLOUDY    32  27  80 NW21      29.86R WCI  20
LOGANSPORT*    CLOUDY    32  28  86 NW13G25   29.83R WCI  22
ROCHESTER*     CLOUDY    34  30  86 NW18G29   29.82R WCI  23
WARSAW*        CLOUDY    32  28  86 NW17G24   29.79R WCI  21
AUBURN*        CLOUDY    32  30  93 NW13G20   29.73R FOG     WCI  22
FORT WAYNE     CLOUDY    34  31  88 NW20G30   29.74R WCI  23
HUNTINGTON*    CLOUDY    33  30  88 NW13G23   29.76R WCI  24
PERU/GRISSOM   CLOUDY    33  30  88 NW16G29   29.80R WCI  23
MARION*        CLOUDY    33  31  93 NW17G23   29.78R FOG     WCI  21

$$
INZ028>050-120800-
CENTRAL INDIANA

CITY           SKY/WX    TMP DP  RH WIND       PRES   REMARKS
LAFAYETTE      CLOUDY    32  27  81 NW17G26   29.88R WCI  21
KOKOMO*        CLOUDY    33  29  85 NW23G32   29.80R WCI  21
MUNCIE*        CLOUDY    34  30  85 NW14G23   29.77R FOG     WCI  25
INDIANAPOLIS   CLOUDY    34  28  79 NW15G32   29.86R WCI  24

$$
MIZ043>046-050>051-056>058-064>065-071>073-077>080-120800-
SOUTHWEST LOWER MICHIGAN

CITY           SKY/WX    TMP DP  RH WIND       PRES   REMARKS
BATTLE CREEK   LGT SNOW  28  24  85 NW18G29   29.75R FOG     WCI  15
BENTON HARBOR  CLOUDY    32  21  64 N12G26    29.83R WCI  23
COLDWATER*     CLOUDY    30  28  91 NW12      29.73R WCI  21
HILLSDALE*     CLOUDY    30  27  86 NW18G28   29.67R WCI  18
HOLLAND        LGT SNOW  26  21  81 N16G28    29.83R VSB 3/4 WCI  14
GRAND RAPIDS   CLOUDY    27  19  72 NW22G29   29.77R WCI  13
KALAMAZOO      LGT SNOW  29  23  78 N17G30    29.77R WCI  17
STURGIS*       MIX PCPN  30  28  93 N8        29.74R WCI  23
THREE RIVERS*  LGT SNOW  33  28  85 NW14G21   29.76R WCI  23

$$
OHZ001>008-015>018-024>025-120800-
NORTHWEST OHIO

CITY           SKY/WX    TMP DP  RH WIND       PRES   REMARKS
WAUSEON*       CLOUDY    32  32 100 NW17      29.67S WCI  21
DEFIANCE       CLOUDY    33  28  81 NW16G23   29.70R WCI  23
FINDLAY        LGT SNOW  31  27  85 W9        29.66S FOG     WCI  23
TOLEDO EXPRESS CLOUDY    30  30 100 W8        29.67R FOG     WCI  22
TOLEDO METCALF CLOUDY    31  29  92 W13       29.67R FOG     WCI  21
LIMA           CLOUDY    30  29  96 NW14      29.69R WCI  19

$$
AND FOR LAKE MICHIGAN COASTAL AND OPEN LAKE BUOY OBSERVATIONS

STATION/POSITION TEMP    WIND        PRES    VSBY  WAVE
                 AIR SEA DIR/SP/G                  HT/PER
                 (F)     (DEG/KT/KT) (MB)    (MI)  (FT/S)
CALUMET HARBOR           310/ 10/ 18 1012.1R
MICHIGAN CITY     34     310/ 31/ 36   N/A
BURNS HARBOR      34     330/ 23/ 26 1011.9
SAINT JOSEPH      33     350/ 27/ 34 1011.5

$$
&&




USA.gov is the U.S. government's official web portal to all federal, state and local government web resources and services.